Simultaneous Nadir Overpasses (SNOs) Predictions

Prediction of SNOs between LANDSAT-8 and NOAA-19 Satellite Orbit:

Table of predicted SNOs for the next 14.0 days since TLE Epoch: 3/9/2018
Index Date (LANDSAT-8) Time (LANDSAT-8) Lat,Lon (LANDSAT-8) SZA (LANDSAT-8 ) Date (NOAA-19) Time (NOAA-19) Lat,Lon (NOAA-19) SZA (NOAA-19 ) Distance(km) Time Diff (sec)
1 03/10/2018 19:42:02 77.29,-103.10 81.29 03/10/2018 19:41:38 77.31,-103.12 81.31 2.16 24
2 03/10/2018 20:31:30 -77.26, 64.40 98.76 03/10/2018 20:32:35 -77.25, 64.39 98.76 0.35 65
3 03/13/2018 01:15:45 -77.31, -6.46 99.56 03/13/2018 01:15:14 -77.30, -6.39 99.58 2.20 31
4 03/13/2018 02:05:12 77.25, 160.95 80.36 03/13/2018 02:06:17 77.28, 160.93 80.40 3.08 65
5 03/15/2018 06:49:27 77.30, 90.07 79.56 03/15/2018 06:48:56 77.30, 90.23 79.56 3.85 31
6 03/15/2018 07:38:55 -77.27,-102.40 100.49 03/15/2018 07:39:53 -77.29,-102.45 100.47 2.30 58
7 03/17/2018 12:23:10 -77.32,-173.28 101.30 03/17/2018 12:22:32 -77.33,-173.26 101.29 1.88 38
8 03/17/2018 13:12:36 77.30, -5.71 78.67 03/17/2018 13:13:35 77.28, -5.75 78.66 2.63 59
9 03/19/2018 17:56:51 77.34, -76.61 77.86 03/19/2018 17:56:15 77.35, -76.69 77.86 1.98 36
10 03/19/2018 18:46:20 -77.27, 90.75 102.24 03/19/2018 18:47:10 -77.29, 90.86 102.21 3.35 50
11 03/21/2018 23:30:34 -77.36, 20.03 103.00 03/21/2018 23:29:49 -77.34, 20.03 103.02 2.34 45




NCC Satellite Simultaneous Nadir Overpasses (SNOs) Prediction Service
